STARLINK-1328 (45576 NORAD) Tracking and Keplerian Element Data

This shows tracking and keplerian element data for the satellite.

Feedback or suggestion? Click here.




ElementValue
Catalog45576
NameSTARLINK-1328
Epoch Orbit572
Epoch Day145.75001157
Epoch Year2020
RAAN241.7231
Inclination52.9974
Eccentricity0.0001247
Argument of Perigee81.782
Mean Anonmoly311.352
Mean Motion15.62732055
Decay Rate0.00050214
L11 45576U 20025AX 20145.75001157 .00050214 00000-0 55128-3 0 9990
L22 45576 52.9974 241.7231 0001247 81.7820 311.3520 15.62732055 5720

Live tracking and technical data element details for STARLINK-1328 (NORAD 45576). STARLINK-1328 can be tracked NOW for your location showing map with azimuth and elevation plus other details from your city location.

Track the satellite on the map from your city or location and see movement details for azimuth, elevation, latitude, longitude, range, height, and movement on the map or in text.







IsCatalogInMostPopularTable: catalog: 45576, numindb: 6
Update: records affected: 1



GetName: 45576 STARLINK-1328

Hit Count: updated at: Tue, 26 May 2020 04:24:26 GMT